When you browse on this site, cookies collect data to enhance your experience and personalize the content and advertising you see.
Visit our Privacy Policy to learn more. By continuing to use the site, you agree to this use of cookies and data.
  • In Sweden
  • List of Countries
  • For 7 days
  • Water Temperature
  • Weather Map
  • Weather Widgets
  • user-avatar
    Login

    Hourly Weather Porto Alegre

    Today, 2 April, Thursday

    Time Temperature Precipitation Wind Pressure Humidity
    00:00 +24°C° 0 mm 1 mps 755 mmHg 89%
    01:00 +24°C° 0.1 mm 1 mps 755 mmHg 88%
    02:00 +24°C° 0.1 mm 1 mps 755 mmHg 88%
    03:00 +24°C° 0.1 mm 1 mps 754 mmHg 88%
    04:00 +24°C° 0.9 mm 2 mps 754 mmHg 89%
    05:00 +24°C° 0.9 mm 3 mps 754 mmHg 90%
    06:00 +24°C° 0.9 mm 3 mps 754 mmHg 90%
    07:00 +23°C° 0.5 mm 4 mps 754 mmHg 89%
    08:00 +23°C° 0.5 mm 4 mps 754 mmHg 88%
    09:00 +25°C° 0.5 mm 4 mps 754 mmHg 87%
    10:00 +25°C° 0.3 mm 5 mps 754 mmHg 86%
    11:00 +25°C° 0.3 mm 5 mps 754 mmHg 85%
    12:00 +25°C° 0.3 mm 5 mps 754 mmHg 84%
    13:00 +27°C° 0.4 mm 5 mps 753 mmHg 77%
    14:00 +28°C° 0.4 mm 5 mps 753 mmHg 71%
    15:00 +29°C° 0.4 mm 5 mps 753 mmHg 65%
    16:00 +28°C° 0.2 mm 5 mps 753 mmHg 59%
    17:00 +27°C° 0.2 mm 4 mps 753 mmHg 53%
    18:00 +26°C° 0.2 mm 4 mps 754 mmHg 48%
    19:00 +25°C° 0 mm 5 mps 754 mmHg 51%
    20:00 +23°C° 0 mm 5 mps 755 mmHg 54%
    21:00 +22°C° 0 mm 5 mps 755 mmHg 58%
    22:00 +21°C° 0 mm 5 mps 755 mmHg 58%
    23:00 +20°C° 0 mm 5 mps 755 mmHg 59%

    Tomorrow, 3 April, Friday

    Time Temperature Precipitation Wind Pressure Humidity
    00:00 +19°C° 0 mm 5 mps 755 mmHg 59%
    01:00 +17°C° 0 mm 5 mps 755 mmHg 61%
    02:00 +17°C° 0 mm 6 mps 754 mmHg 63%
    03:00 +16°C° 0 mm 6 mps 754 mmHg 64%
    04:00 +16°C° 0 mm 6 mps 754 mmHg 65%
    05:00 +16°C° 0 mm 6 mps 754 mmHg 65%
    06:00 +16°C° 0 mm 6 mps 754 mmHg 66%
    07:00 +16°C° 0 mm 5 mps 754 mmHg 66%
    08:00 +16°C° 0 mm 5 mps 755 mmHg 67%
    09:00 +17°C° 0 mm 5 mps 755 mmHg 67%
    10:00 +19°C° 0.1 mm 4 mps 756 mmHg 67%
    11:00 +20°C° 0.1 mm 4 mps 756 mmHg 67%
    12:00 +21°C° 0.1 mm 3 mps 756 mmHg 67%
    13:00 +22°C° 0.2 mm 3 mps 756 mmHg 65%
    14:00 +24°C° 0.2 mm 3 mps 756 mmHg 62%
    15:00 +25°C° 0.2 mm 3 mps 756 mmHg 60%
    16:00 +24°C° 0.1 mm 3 mps 756 mmHg 63%
    17:00 +24°C° 0.1 mm 3 mps 756 mmHg 65%
    18:00 +22°C° 0.1 mm 3 mps 756 mmHg 67%
    19:00 +21°C° 0 mm 3 mps 756 mmHg 69%
    20:00 +21°C° 0 mm 2 mps 757 mmHg 72%
    21:00 +20°C° 0 mm 2 mps 757 mmHg 74%
    22:00 +19°C° 0 mm 2 mps 757 mmHg 75%
    23:00 +19°C° 0 mm 2 mps 757 mmHg 76%

    Day after tomorrow, 4 April, Saturday

    Time Temperature Precipitation Wind Pressure Humidity
    00:00 +20°C° 0 mm 1 mps 757 mmHg 77%
    01:00 +19°C° 0 mm 1 mps 757 mmHg 78%
    02:00 +19°C° 0 mm 1 mps 757 mmHg 79%
    03:00 +18°C° 0 mm 1 mps 757 mmHg 80%
    04:00 +18°C° 0 mm 1 mps 757 mmHg 82%
    05:00 +18°C° 0 mm 1 mps 757 mmHg 83%
    06:00 +16°C° 0 mm 1 mps 757 mmHg 85%
    07:00 +19°C° 0 mm 1 mps 758 mmHg 80%
    08:00 +20°C° 0 mm 1 mps 758 mmHg 75%
    09:00 +21°C° 0 mm 1 mps 759 mmHg 70%
    10:00 +23°C° 0 mm 1 mps 758 mmHg 60%
    11:00 +25°C° 0 mm 1 mps 758 mmHg 50%
    12:00 +25°C° 0 mm 0 mps 758 mmHg 40%
    13:00 +28°C° 0 mm 1 mps 757 mmHg 38%
    14:00 +28°C° 0 mm 1 mps 757 mmHg 36%
    15:00 +28°C° 0 mm 1 mps 757 mmHg 33%
    16:00 +27°C° 0 mm 2 mps 756 mmHg 40%
    17:00 +25°C° 0 mm 2 mps 756 mmHg 46%
    18:00 +24°C° 0 mm 3 mps 756 mmHg 53%
    19:00 +22°C° 0 mm 3 mps 757 mmHg 59%
    20:00 +21°C° 0 mm 3 mps 757 mmHg 65%
    21:00 +20°C° 0 mm 3 mps 758 mmHg 71%
    22:00 +20°C° 0 mm 3 mps 758 mmHg 72%
    23:00 +19°C° 0 mm 3 mps 757 mmHg 74%

    5 April, Sunday

    Time Temperature Precipitation Wind Pressure Humidity
    00:00 +19°C° 0 mm 2 mps 757 mmHg 76%
    01:00 +19°C° 0 mm 2 mps 757 mmHg 77%
    02:00 +18°C° 0 mm 2 mps 757 mmHg 79%
    03:00 +19°C° 0 mm 1 mps 757 mmHg 80%
    04:00 +18°C° 0 mm 1 mps 757 mmHg 80%
    05:00 +18°C° 0 mm 1 mps 758 mmHg 81%
    06:00 +18°C° 0 mm 1 mps 758 mmHg 81%
    07:00 +19°C° 0 mm 1 mps 758 mmHg 75%
    08:00 +21°C° 0 mm 1 mps 758 mmHg 68%
    09:00 +22°C° 0 mm 1 mps 758 mmHg 62%
    10:00 +25°C° 0 mm 1 mps 758 mmHg 55%
    11:00 +27°C° 0 mm 1 mps 758 mmHg 49%
    12:00 +27°C° 0 mm 0 mps 757 mmHg 42%
    13:00 +30°C° 0 mm 1 mps 757 mmHg 40%
    14:00 +30°C° 0 mm 1 mps 756 mmHg 38%
    15:00 +31°C° 0 mm 1 mps 756 mmHg 37%
    16:00 +29°C° 0 mm 2 mps 755 mmHg 42%
    17:00 +28°C° 0 mm 2 mps 755 mmHg 48%
    18:00 +27°C° 0 mm 3 mps 755 mmHg 54%
    19:00 +26°C° 0 mm 3 mps 755 mmHg 57%
    20:00 +25°C° 0 mm 2 mps 756 mmHg 61%
    21:00 +24°C° 0 mm 2 mps 756 mmHg 65%
    22:00 +23°C° 0 mm 2 mps 756 mmHg 67%
    23:00 +23°C° 0 mm 1 mps 756 mmHg 69%

    6 April, Monday

    Time Temperature Precipitation Wind Pressure Humidity
    00:00 +23°C° 0 mm 1 mps 756 mmHg 71%
    01:00 +22°C° 0 mm 1 mps 756 mmHg 72%
    02:00 +22°C° 0 mm 1 mps 756 mmHg 72%
    03:00 +22°C° 0 mm 1 mps 756 mmHg 73%
    04:00 +21°C° 0 mm 1 mps 756 mmHg 71%
    05:00 +21°C° 0 mm 1 mps 756 mmHg 70%
    06:00 +20°C° 0 mm 2 mps 756 mmHg 69%
    07:00 +21°C° 0 mm 2 mps 757 mmHg 66%
    08:00 +22°C° 0 mm 3 mps 757 mmHg 64%
    09:00 +22°C° 0 mm 3 mps 757 mmHg 61%
    10:00 +25°C° 0 mm 3 mps 758 mmHg 56%
    11:00 +27°C° 0 mm 3 mps 758 mmHg 50%
    12:00 +29°C° 0 mm 3 mps 758 mmHg 45%
    13:00 +30°C° 0 mm 3 mps 757 mmHg 42%
    14:00 +31°C° 0 mm 3 mps 757 mmHg 39%
    15:00 +33°C° 0 mm 3 mps 756 mmHg 36%
    16:00 +30°C° 0 mm 3 mps 757 mmHg 40%
    17:00 +29°C° 0 mm 3 mps 757 mmHg 45%
    18:00 +28°C° 0 mm 2 mps 757 mmHg 49%
    19:00 +26°C° 0 mm 4 mps 758 mmHg 56%
    20:00 +23°C° 0 mm 5 mps 759 mmHg 62%
    21:00 +22°C° 0 mm 6 mps 759 mmHg 69%
    22:00 +21°C° 0 mm 5 mps 760 mmHg 67%
    23:00 +20°C° 0 mm 4 mps 760 mmHg 65%

    7 April, Tuesday

    Time Temperature Precipitation Wind Pressure Humidity
    00:00 +20°C° 0 mm 4 mps 761 mmHg 64%
    01:00 +19°C° 0 mm 3 mps 761 mmHg 64%
    02:00 +18°C° 0 mm 3 mps 761 mmHg 64%
    03:00 +18°C° 0 mm 3 mps 761 mmHg 65%
    04:00 +18°C° 0 mm 3 mps 761 mmHg 65%
    05:00 +18°C° 0 mm 3 mps 761 mmHg 65%
    06:00 +17°C° 0 mm 2 mps 761 mmHg 65%
    07:00 +18°C° 0 mm 3 mps 762 mmHg 63%
    08:00 +18°C° 0 mm 3 mps 762 mmHg 61%
    09:00 +19°C° 0 mm 3 mps 762 mmHg 59%
    10:00 +20°C° 0 mm 3 mps 762 mmHg 55%
    11:00 +21°C° 0 mm 3 mps 762 mmHg 51%
    12:00 +21°C° 0 mm 3 mps 762 mmHg 47%
    13:00 +22°C° 0 mm 3 mps 762 mmHg 46%
    14:00 +22°C° 0 mm 3 mps 761 mmHg 46%
    15:00 +22°C° 0 mm 4 mps 761 mmHg 45%
    16:00 +21°C° 0 mm 4 mps 761 mmHg 48%
    17:00 +20°C° 0 mm 4 mps 761 mmHg 51%
    18:00 +19°C° 0 mm 4 mps 761 mmHg 54%
    19:00 +19°C° 0 mm 3 mps 761 mmHg 57%
    20:00 +18°C° 0 mm 3 mps 761 mmHg 60%
    21:00 +17°C° 0 mm 3 mps 761 mmHg 63%
    22:00 +17°C° 0 mm 2 mps 761 mmHg 65%
    23:00 +16°C° 0 mm 2 mps 761 mmHg 67%
    Show more